When you browse on this site, cookies collect data to enhance your experience and personalize the content and advertising you see.
Visit our Privacy Policy to learn more. By continuing to use the site, you agree to this use of cookies and data.
  • en Suisse
  • Liste des pays
  • À 7 jours
  • Température de l'eau
  • Carte météo
  • Widgets météo
  • user-avatar
    Se connecter

    Météo par heure à Aberdeen

    Ce jour, 3 Avril, Vendredi

    Heure Température Précipitation Vent Pression Humidité
    00:00 -2°C° 0 mm 4 m/s 750 mmHg 76%
    01:00 -2°C° 0 mm 4 m/s 750 mmHg 77%
    02:00 -2°C° 0 mm 4 m/s 750 mmHg 78%
    03:00 -2°C° 0 mm 4 m/s 750 mmHg 79%
    04:00 -2°C° 0 mm 4 m/s 750 mmHg 79%
    05:00 -2°C° 0 mm 4 m/s 750 mmHg 79%
    06:00 -1°C° 0 mm 3 m/s 750 mmHg 80%
    07:00 0°C° 0 mm 4 m/s 750 mmHg 73%
    08:00 +1°C° 0 mm 4 m/s 750 mmHg 67%
    09:00 +4°C° 0 mm 4 m/s 750 mmHg 61%
    10:00 +5°C° 0 mm 4 m/s 750 mmHg 60%
    11:00 +6°C° 0 mm 4 m/s 751 mmHg 59%
    12:00 +6°C° 0 mm 4 m/s 751 mmHg 57%
    13:00 +7°C° 0.1 mm 4 m/s 751 mmHg 57%
    14:00 +7°C° 0.1 mm 4 m/s 751 mmHg 56%
    15:00 +7°C° 0.1 mm 5 m/s 751 mmHg 55%
    16:00 +7°C° 0 mm 4 m/s 751 mmHg 59%
    17:00 +6°C° 0 mm 4 m/s 751 mmHg 63%
    18:00 +5°C° 0 mm 3 m/s 751 mmHg 67%
    19:00 +5°C° 0 mm 2 m/s 752 mmHg 72%
    20:00 +4°C° 0 mm 2 m/s 752 mmHg 78%
    21:00 +3°C° 0 mm 1 m/s 752 mmHg 83%
    22:00 +3°C° 0 mm 1 m/s 752 mmHg 85%
    23:00 +3°C° 0 mm 1 m/s 752 mmHg 87%

    Demain, 4 Avril, Samedi

    Heure Température Précipitation Vent Pression Humidité
    00:00 +3°C° 0 mm 1 m/s 753 mmHg 88%
    01:00 +3°C° 0 mm 1 m/s 753 mmHg 89%
    02:00 +3°C° 0 mm 1 m/s 752 mmHg 90%
    03:00 +3°C° 0 mm 1 m/s 752 mmHg 90%
    04:00 +2°C° 0 mm 2 m/s 752 mmHg 90%
    05:00 +3°C° 0 mm 2 m/s 752 mmHg 91%
    06:00 +3°C° 0 mm 2 m/s 752 mmHg 91%
    07:00 +4°C° 0 mm 2 m/s 752 mmHg 87%
    08:00 +5°C° 0 mm 2 m/s 752 mmHg 84%
    09:00 +7°C° 0 mm 3 m/s 752 mmHg 80%
    10:00 +7°C° 0 mm 3 m/s 752 mmHg 76%
    11:00 +7°C° 0 mm 4 m/s 752 mmHg 73%
    12:00 +8°C° 0 mm 5 m/s 752 mmHg 69%
    13:00 +8°C° 0.1 mm 5 m/s 752 mmHg 69%
    14:00 +8°C° 0.1 mm 5 m/s 752 mmHg 69%
    15:00 +8°C° 0.1 mm 6 m/s 752 mmHg 69%
    16:00 +8°C° 0 mm 5 m/s 752 mmHg 71%
    17:00 +8°C° 0 mm 5 m/s 751 mmHg 72%
    18:00 +7°C° 0 mm 5 m/s 751 mmHg 74%
    19:00 +7°C° 0 mm 5 m/s 751 mmHg 77%
    20:00 +6°C° 0 mm 4 m/s 751 mmHg 79%
    21:00 +5°C° 0 mm 4 m/s 751 mmHg 82%
    22:00 +5°C° 0 mm 4 m/s 751 mmHg 83%
    23:00 +5°C° 0 mm 4 m/s 751 mmHg 85%

    Après-demain, 5 Avril, Dimanche

    Heure Température Précipitation Vent Pression Humidité
    00:00 +5°C° 0 mm 4 m/s 751 mmHg 86%
    01:00 +5°C° 0 mm 3 m/s 750 mmHg 88%
    02:00 +4°C° 0 mm 3 m/s 750 mmHg 90%
    03:00 +4°C° 0 mm 3 m/s 750 mmHg 92%
    04:00 +4°C° 0 mm 3 m/s 749 mmHg 92%
    05:00 +4°C° 0 mm 3 m/s 749 mmHg 93%
    06:00 +3°C° 0 mm 3 m/s 749 mmHg 94%
    07:00 +5°C° 0 mm 4 m/s 748 mmHg 89%
    08:00 +6°C° 0 mm 5 m/s 748 mmHg 84%
    09:00 +8°C° 0 mm 5 m/s 747 mmHg 79%
    10:00 +9°C° 0 mm 6 m/s 747 mmHg 74%
    11:00 +10°C° 0 mm 6 m/s 746 mmHg 68%
    12:00 +12°C° 0 mm 7 m/s 745 mmHg 62%
    13:00 +12°C° 0 mm 7 m/s 745 mmHg 61%
    14:00 +13°C° 0 mm 8 m/s 744 mmHg 60%
    15:00 +15°C° 0 mm 9 m/s 743 mmHg 59%
    16:00 +13°C° 0 mm 8 m/s 742 mmHg 63%
    17:00 +13°C° 0 mm 8 m/s 742 mmHg 67%
    18:00 +12°C° 0 mm 7 m/s 741 mmHg 71%
    19:00 +12°C° 0 mm 7 m/s 741 mmHg 73%
    20:00 +12°C° 0 mm 7 m/s 740 mmHg 74%
    21:00 +11°C° 0 mm 7 m/s 740 mmHg 75%
    22:00 +11°C° 0.1 mm 7 m/s 740 mmHg 78%
    23:00 +11°C° 0.1 mm 7 m/s 739 mmHg 81%

    6 Avril, Lundi

    Heure Température Précipitation Vent Pression Humidité
    00:00 +11°C° 0.1 mm 7 m/s 739 mmHg 84%
    01:00 +10°C° 0.3 mm 7 m/s 739 mmHg 85%
    02:00 +10°C° 0.3 mm 8 m/s 739 mmHg 86%
    03:00 +10°C° 0.3 mm 9 m/s 739 mmHg 87%
    04:00 +9°C° 0.1 mm 8 m/s 739 mmHg 87%
    05:00 +6°C° 0.1 mm 7 m/s 740 mmHg 87%
    06:00 +5°C° 0.1 mm 6 m/s 741 mmHg 86%
    07:00 +6°C° 0 mm 7 m/s 742 mmHg 81%
    08:00 +6°C° 0 mm 8 m/s 743 mmHg 75%
    09:00 +7°C° 0 mm 8 m/s 744 mmHg 69%
    10:00 +9°C° 0 mm 8 m/s 745 mmHg 65%
    11:00 +8°C° 0 mm 9 m/s 746 mmHg 61%
    12:00 +10°C° 0 mm 9 m/s 747 mmHg 57%
    13:00 +10°C° 0.1 mm 9 m/s 748 mmHg 56%
    14:00 +10°C° 0.1 mm 9 m/s 749 mmHg 54%
    15:00 +10°C° 0.1 mm 9 m/s 750 mmHg 53%
    16:00 +9°C° 0 mm 7 m/s 751 mmHg 56%
    17:00 +8°C° 0 mm 6 m/s 753 mmHg 58%
    18:00 +8°C° 0 mm 5 m/s 754 mmHg 61%
    19:00 +6°C° 0 mm 5 m/s 755 mmHg 65%
    20:00 +5°C° 0 mm 4 m/s 756 mmHg 69%
    21:00 +4°C° 0 mm 3 m/s 757 mmHg 73%
    22:00 +4°C° 0 mm 3 m/s 758 mmHg 75%
    23:00 +3°C° 0 mm 3 m/s 759 mmHg 76%

    7 Avril, Mardi

    Heure Température Précipitation Vent Pression Humidité
    00:00 +3°C° 0 mm 3 m/s 759 mmHg 77%
    01:00 +3°C° 0 mm 3 m/s 760 mmHg 80%
    02:00 +3°C° 0 mm 3 m/s 760 mmHg 83%
    03:00 +3°C° 0 mm 3 m/s 761 mmHg 86%
    04:00 +3°C° 0 mm 3 m/s 761 mmHg 88%
    05:00 +2°C° 0 mm 3 m/s 761 mmHg 90%
    06:00 +2°C° 0 mm 3 m/s 762 mmHg 92%
    07:00 +4°C° 0 mm 4 m/s 762 mmHg 84%
    08:00 +5°C° 0 mm 6 m/s 762 mmHg 76%
    09:00 +6°C° 0 mm 7 m/s 762 mmHg 69%
    10:00 +8°C° 0 mm 7 m/s 762 mmHg 64%
    11:00 +9°C° 0 mm 8 m/s 762 mmHg 60%
    12:00 +10°C° 0 mm 8 m/s 763 mmHg 56%
    13:00 +11°C° 0 mm 8 m/s 762 mmHg 56%
    14:00 +11°C° 0 mm 8 m/s 762 mmHg 56%
    15:00 +11°C° 0 mm 9 m/s 762 mmHg 56%
    16:00 +10°C° 0 mm 8 m/s 762 mmHg 61%
    17:00 +10°C° 0 mm 7 m/s 762 mmHg 65%
    18:00 +9°C° 0 mm 6 m/s 762 mmHg 69%
    19:00 +8°C° 0 mm 5 m/s 762 mmHg 73%
    20:00 +7°C° 0 mm 5 m/s 763 mmHg 76%
    21:00 +6°C° 0 mm 4 m/s 763 mmHg 79%
    22:00 +5°C° 0 mm 4 m/s 763 mmHg 82%
    23:00 +5°C° 0 mm 4 m/s 763 mmHg 84%

    8 Avril, Mercredi

    Heure Température Précipitation Vent Pression Humidité
    00:00 +4°C° 0 mm 3 m/s 763 mmHg 86%
    01:00 +4°C° 0 mm 3 m/s 763 mmHg 88%
    02:00 +3°C° 0 mm 3 m/s 763 mmHg 90%
    03:00 +3°C° 0 mm 3 m/s 763 mmHg 91%
    04:00 +4°C° 0 mm 2 m/s 763 mmHg 91%
    05:00 +3°C° 0 mm 2 m/s 762 mmHg 91%
    06:00 +3°C° 0 mm 2 m/s 762 mmHg 91%
    07:00 +5°C° 0 mm 2 m/s 762 mmHg 85%
    08:00 +7°C° 0 mm 2 m/s 762 mmHg 79%
    09:00 +9°C° 0 mm 2 m/s 762 mmHg 73%
    10:00 +10°C° 0 mm 2 m/s 762 mmHg 69%
    11:00 +11°C° 0 mm 3 m/s 761 mmHg 65%
    12:00 +13°C° 0 mm 3 m/s 761 mmHg 60%
    13:00 +13°C° 0 mm 3 m/s 760 mmHg 62%
    14:00 +13°C° 0 mm 4 m/s 760 mmHg 64%
    15:00 +13°C° 0 mm 4 m/s 759 mmHg 66%
    16:00 +13°C° 0 mm 3 m/s 759 mmHg 70%
    17:00 +12°C° 0 mm 3 m/s 758 mmHg 74%
    18:00 +12°C° 0 mm 2 m/s 758 mmHg 79%
    19:00 +12°C° 0 mm 2 m/s 758 mmHg 80%
    20:00 +12°C° 0 mm 2 m/s 758 mmHg 81%
    21:00 +12°C° 0 mm 2 m/s 757 mmHg 83%
    22:00 +10°C° 0 mm 2 m/s 757 mmHg 85%
    23:00 +10°C° 0 mm 2 m/s 757 mmHg 88%
    Voir plus